loading
|

THOR ABLESTAR DEB, 478

Orbit data source: Space-Track

THOR ABLESTAR DEB, 478 is space debris in LEO originally from a launch on Thu, 29 Jun 1961 UTC launched from the Air Force Eastern Test Range (AFETR). Debris objects in space refer to the collection of defunct objects orbiting the Earth. Examples of debris include non-operational satellites, rocket bodies, and fragments generated from explosions, collisions, or faulty payload assembly.

Loading next visibility...
Loading greatness...
THOR ABLESTAR DEB details
Identifier
478, 1961-015FQ
Orbit
LEO
Last TLE update23 hours ago
Origin
Flag of USUSAF SSD (US)
ManufacturerUnknown
Mission statusUnknown
MissionUnknown
Bus & MotorUnknown
MassUnknown
Launch date (UTC)
1961-06-29 (63 years ago)
Launch vehicleUnknown
Launch site
Air Force Eastern Test Range (AFETR)
Object type
Payload
Rocket body
Debris
Radar Cross SectionSmall (<0.1 m²)

Expand to show TLE details & history

TLE from 23 hours ago
0 THOR ABLESTAR DEB
1 00478U 61015FQ  24258.35643497  .00023994  00000-0  36378-2 0  9990
2 00478  66.0656 246.2693 0041397 343.7065  16.2715 14.73508983288978
Epoch: 2024-09-14T08:33Z
Definitive object data (Epoch: 2024-09-14T08:33:15.981Z)
Latitude-0.00008°
Longitude124.13735°
Altitude624.065 km
Speed7.562 km/s
True Right ascension16h 25m 04s
True Declination0° 00' 00"
Sunlit
Object was in daylight at TLE epoch
Predictive object data (real-time)
Latitude45.79396°
Longitude148.36854°
Altitude645.043 km
Speed7.546 km/s
Apparent Right ascension15h 08m 08s
Apparent Declination7° 32' 13"
Sunlit
Object is in daylight
Predictive observer data (real-time)
Local Sidereal Time00:14:00
Azimuth309.447° NW
Elevation-27.846°
Doppler factor1
Orbital elements
Apogee677.394 km
Perigee619.219 km
Semi-major axis7,026.444 km
Eccentricity0.0041397
Inclination66.0656°
RAAN246.2693°
Arg. of periapsis343.7065°
True anomaly16.40508°
Mean anomaly16.2715°
Eccentric anomaly16.33822°
Mean motion3.68502 °/min
BSTAR0.0036378
Period97.69 mins
No data available

THOR ABLESTAR DEB Visibility forecast

Observer location: 39.9160978°, -105.1181434

THOR ABLESTAR DEB is not visible in the next 10 days
Span
Click to sort rows by Start time (UTC) header in descending order
Start Az.
Max El. time (UTC)
Max El. Az.
Max El.
End time (UTC)
End Az.